Starlink 4473

operational
NORAD ID: 53660 Int'l Des: 2022-105 Owner: SPXS Country: US Constellation: starlink
LEOCIRCULARRETROGRADESSO

Über Starlink 4473

Beschreibung wird geladen...

Live-Position

3D-Globus wird geladen...

Nächste Überflüge

Höhenverlauf

Altitude vs Time

uPlot chart will show altitude changes over time

Zweizeiliger Elementsatz

1 53660U 22105N 25354.17312478 .00000497 00000-0 43223-4 0 9990
2 53660 97.6010 232.3588 0000653 67.1605 292.9688 15.01262762181304
Epoch: 20. Dez. 2025 • Age: 9 hours

Aktueller Status

Höhe 569.9 km
Geschwindigkeit 7.57 km/s
Subsatellitenpunkt -16.41°S, 125.74°E
Startdatum 31. Aug. 2022
Alter 3.3 years
Typ internet

Technische Details

Klassifizierung Payload
Masse 300.00 kg
Trockenmasse 290.00 kg
Gesamtmasse 300.00 kg
Länge 0.20 m
Durchmesser 2.80 m
Spannweite 9.00 m
Form Box + pan
Hersteller SPXS
Bus-Typ Starlink
Phasenstatus In Orbit
Besitzer/Staat SPXS/US

Große Konstellationen

Loading constellations...